Weather History for Orange, MA

Change the Weather History Date:

Thursday, August 30, 2012

  Actual Average Record
Temperature  
Mean Temperature 63 °F -  
Max Temperature 80 °F 76 °F 91 °F (2010)
Min Temperature 46 °F 52 °F 46 °F (1999)
Degree Days  
Heating Degree Days 2    
Growing Degree Days 13 (Base 50)    
Moisture  
Dew Point 49 °F    
Average Humidity 82    
Maximum Humidity 100    
Minimum Humidity 34    
Precipitation  
Precipitation 0.00 in - - ()
Sea Level Pressure  
Sea Level Pressure 30.03 in    
Wind  
Wind Speed 1 mph (WSW)    
Max Wind Speed 14 mph    
Max Gust Speed 20 mph    
Visibility 6 miles    
Events Fog    
Averages and records for this station are not official NWS values.
T = Trace of Precipitation, MM = Missing Value Source: NWS Daily Summary

Daily Weather History Graph

Daily Weather History Graph

Search for Another Location

Airport:

Trip Planner

Search our weather history database for the weather conditions in past years. The results will help you decide how hot, cold, wet, or windy it might be!

Date:

Astronomy

Aug. 30, 2012 Rise Set
Actual Time 6:12 AM EDT 7:25 PM EDT
Civil Twilight 5:43 AM EDT 7:55 PM EDT
Nautical Twilight 5:08 AM EDT 8:29 PM EDT
Astronomical Twilight 4:31 AM EDT 9:06 PM EDT
Moon 6:38 PM EDT (8/30) 5:10 AM EDT (8/30)
Length of Visible Light 14h 11m
Length of Day
13h 13m
Waxing Gibbous, 99% of the Moon is Illuminated
Aug 30
Waxing Gibbous
Aug 31
Full
Sep 8
Last Quarter
Sep 15
New
Sep 22
First Quarter

Hourly Weather History & Observations

Time (EDT) Temp. Dew Point Humidity Pressure Visibility Wind Dir Wind Speed Gust Speed Precip Events Conditions
12:52 AM 52.0 °F 50.0 °F 93% 30.02 in 10.0 mi Calm Calm - N/A   Clear
1:52 AM 51.1 °F 50.0 °F 96% 30.01 in 10.0 mi Calm Calm - N/A   Clear
2:52 AM 48.9 °F 48.0 °F 97% 30.02 in 10.0 mi Calm Calm - N/A   Partly Cloudy
3:52 AM 48.9 °F 46.9 °F 93% 30.02 in 10.0 mi Calm Calm - N/A   Mostly Cloudy
4:18 AM 48.2 °F 46.4 °F 93% 30.01 in 10.0 mi Calm Calm - N/A   Scattered Clouds
4:25 AM 48.2 °F 46.4 °F 93% 30.01 in 10.0 mi Calm Calm - N/A   Mostly Cloudy
4:38 AM 48.2 °F 46.4 °F 93% 30.00 in 1.2 mi Calm Calm - N/A   Overcast
4:40 AM 48.2 °F 46.4 °F 93% 30.00 in 0.8 mi Calm Calm - N/A   Overcast
4:48 AM 46.4 °F 46.4 °F 100% 30.00 in 1.2 mi Calm Calm - N/A   Mostly Cloudy
4:50 AM 46.4 °F 46.4 °F 100% 30.00 in 4.0 mi Calm Calm - N/A   Mostly Cloudy
4:52 AM 46.9 °F 46.0 °F 97% 30.01 in 9.0 mi Calm Calm - N/A   Mostly Cloudy
5:05 AM 46.4 °F 46.4 °F 100% 30.01 in 1.8 mi Calm Calm - N/A   Mostly Cloudy
5:10 AM 46.4 °F 46.4 °F 100% 30.01 in 1.0 mi Calm Calm - N/A   Mostly Cloudy
5:19 AM 46.4 °F 46.4 °F 100% 30.02 in 0.5 mi Calm Calm - N/A Fog Fog
5:52 AM 48.0 °F 46.9 °F 96% 30.04 in 0.8 mi Calm Calm - N/A   Mist
5:56 AM 46.4 °F 46.4 °F 100% 30.04 in 1.2 mi Calm Calm - N/A   Mostly Cloudy
6:10 AM 46.4 °F 46.4 °F 100% 30.04 in 2.0 mi Calm Calm - N/A   Mostly Cloudy
6:19 AM 46.4 °F 46.4 °F 100% 30.05 in 1.2 mi Calm Calm - N/A   Mostly Cloudy
6:23 AM 46.4 °F 46.4 °F 100% 30.04 in 0.8 mi Calm Calm - N/A   Mist
6:52 AM 46.9 °F 46.0 °F 97% 30.06 in 0.2 mi Calm Calm - N/A Fog Fog
7:41 AM 48.2 °F 48.2 °F 100% 30.06 in 1.2 mi Calm Calm - N/A   Overcast
7:52 AM 48.9 °F 48.9 °F 100% 30.08 in 0.8 mi Calm Calm - N/A   Overcast
8:04 AM 50.0 °F 48.2 °F 94% 30.07 in 1.2 mi Calm Calm - N/A   Overcast
8:07 AM 50.0 °F 48.2 °F 94% 30.07 in 2.0 mi Calm Calm - N/A   Overcast
8:19 AM 51.8 °F 50.0 °F 94% 30.07 in 7.0 mi Calm Calm - N/A   Mostly Cloudy
8:30 AM 51.8 °F 51.8 °F 100% 30.07 in 10.0 mi Calm Calm - N/A   Scattered Clouds
8:52 AM 57.0 °F 52.0 °F 83% 30.06 in 10.0 mi Calm Calm - N/A   Clear
9:52 AM 64.9 °F 54.0 °F 68% 30.07 in 10.0 mi Calm Calm - N/A   Clear
10:52 AM 71.1 °F 48.9 °F 45% 30.06 in 10.0 mi WSW 6.9 mph - N/A   Clear
11:52 AM 75.0 °F 48.0 °F 38% 30.05 in 10.0 mi WNW 9.2 mph - N/A   Clear
12:52 PM 75.9 °F 48.0 °F 37% 30.04 in 10.0 mi WNW 13.8 mph - N/A   Clear
1:52 PM 78.1 °F 52.0 °F 40% 30.02 in 10.0 mi WSW 10.4 mph 19.6 mph N/A   Clear
2:52 PM 80.1 °F 48.9 °F 34% 30.00 in 10.0 mi WSW 10.4 mph 19.6 mph N/A   Clear
3:52 PM 79.0 °F 50.0 °F 36% 30.00 in 10.0 mi West 11.5 mph - N/A   Clear
4:52 PM 79.0 °F 51.1 °F 38% 29.99 in 10.0 mi SW 11.5 mph - N/A   Clear
5:52 PM 78.1 °F 52.0 °F 40% 30.00 in 10.0 mi SW 8.1 mph - N/A   Clear
6:52 PM 73.9 °F 55.0 °F 52% 30.00 in 10.0 mi SSW 5.8 mph - N/A   Clear
7:52 PM 69.1 °F 55.0 °F 61% 30.01 in 10.0 mi South 8.1 mph - N/A   Clear
8:52 PM 66.0 °F 55.9 °F 70% 30.02 in 10.0 mi Calm Calm - N/A   Clear
9:52 PM 61.0 °F 55.9 °F 83% 30.01 in 10.0 mi Calm Calm - N/A   Clear
10:52 PM 59.0 °F 55.0 °F 87% 30.00 in 10.0 mi NNE 3.5 mph - N/A   Clear
11:52 PM 57.0 °F 54.0 °F 89% 30.01 in 10.0 mi Calm Calm - N/A   Clear